Regional Weather Roundup
Issued by NWS Portland, ME

Current Version | Previous Version | Text Only | Print | Product List | Glossary Off
Versions: 1 2 3 4 5 6 7 8 9 10 11 12 13 14 15 16 17 18 19 20 21 22 23 24 25 26 27 28 29 30 31 32 33 34 35 36 37 38 39 40 41 42 43 44 45 46 47 48 49 50
000 ASUS41 KGYX 272310 RWRGYX WEATHER ROUNDUP FOR MAINE AND NEW HAMPSHIRE NATIONAL WEATHER SERVICE GRAY ME 700 PM EDT SAT MAY 27 2017 MEZ002-005-006-010-012-015-018-020-021-024-026-027-029-280000- MAINE CITY SKY/WX TMP DP RH WIND PRES REMARKS PORTLAND MOSUNNY 53 46 77 S9 29.90R SANFORD SUNNY 57 48 72 VRB5 29.90R BAR HARBOR CLEAR 52 46 80 SW6 29.90R WISCASSET SUNNY 55 46 71 SE6 29.92R ROCKLAND SUNNY 48 44 86 SW7 29.92R FRYEBURG MOSUNNY 67 52 58 E7 29.85R LEWISTONAUBURN SUNNY 57 48 72 SE8 29.88 AUGUSTA SUNNY 59 47 64 S8 29.88R WATERVILLE SUNNY 65 48 54 CALM 29.84R BANGOR PTSUNNY 62 47 57 E3 29.88R GREENVILLE N/A 60 41 49 N3 29.86R MILLINOCKET CLOUDY 62 50 64 CALM 29.87R HOULTON MOSUNNY 54 46 74 SE12G18 29.88R PRESQUE ISLE MOSUNNY 61 48 62 S7 29.87R FRENCHVILLE MOSUNNY 63 41 44 SW8 29.84R CARIBOU CLOUDY 63 46 54 SE7 29.85R $$ NHZ002-005-008-009-011-012-014-280000- NEW HAMPSHIRE CITY SKY/WX TMP DP RH WIND PRES REMARKS PORTSMOUTH PTSUNNY 53 46 76 SE9 29.89R ROCHESTER SUNNY 57 47 69 SE7 29.88R NASHUA CLOUDY 67 53 61 SE10 29.87R MANCHESTER CLOUDY 66 50 56 SE12 29.85R CONCORD CLOUDY 65 53 65 VRB7 29.86R LACONIA SUNNY 69 49 48 CALM 29.86R PLYMOUTH PTSUNNY 70 47 43 W5 29.86R BERLIN MOSUNNY 69 40 34 VRB3 29.86R WHITEFIELD SUNNY 67 45 45 S3 29.87R JAFFREY CLOUDY 67 50 54 CALM 29.88S KEENE CLOUDY 66 55 67 CALM 29.87R LEBANON CLOUDY 69 52 54 N3 29.86R MT WASHINGTON PTSUNNY 41 37 87 NW16 N/A $$ VTZ005-007-008-280000- VERMONT CITY SKY/WX TMP DP RH WIND PRES REMARKS ST JOHNSBURY N/A 66 46 48 MISG 29.85R MONTPELIER CLOUDY 64 50 60 W3 29.92R BURLINGTON PTSUNNY 68 48 48 W5 29.87R $$ MAZ007-012-024-CTZ003-RIZ002-NYZ038-NYZ072-280000- SOUTHERN NEW ENGLAND AND NY CITY SKY/WX TMP DP RH WIND PRES REMARKS BOSTON CLOUDY 57 48 72 E14 29.90R WORCESTER CLOUDY 64 49 57 SW9 29.89R NANTUCKET PTCLDY 53 47 79 E8 29.91S PROVIDENCE PTSUNNY 65 53 65 S9 29.89R HARTFORD CLOUDY 67 50 54 SW6 29.88R ALBANY PTSUNNY 70 49 47 CALM 29.87R NEW YORK CITY CLOUDY 69 56 62 SE6 29.87R $$ ANZ081-ANZ082-ANZ150-NHZ014-MEZ023>029-280000- COASTAL MARINE OBSERVATIONS STATION/POSITION TIME TEMP WIND PRES WAVE AIR SEA DIR/SP/G HT/PER (UTC) (F) (DEG/KT/KT) (MB) (FT/S) MOUNT DESERT ROC 2300 46 1013.1R MATINICUS ROCK 2300 46 220/ 7/ 8 1012.7R ISLE OF SHOALS 2300 51 150/ 12/ 13 1012.3R JEFFREYS LEDGE 2206 49 N/A 4/ 8 CASHES LEDGE BUO 2150 50 48 1012.5 4/ 8 GEORGES BANK BUO 2150 48 49 1010.8 7/10 $$ .............KEY.............. WCI - WIND CHILL TC - TEMPERATURE IN CELSIUS VSB - VISIBILITY IN MILES HX - HEAT INDEX FAIR- INDICATES FEW OR NO CLOUDS BELOW 12,000 FT, WITH NO SIGNIFICANT WEATHER AND/OR OBSTRUCTIONS TO VISIBILITY.

USA.gov is the U.S. government's official web portal to all federal, state and local government web resources and services.